(284059) = 2005 CG54

Discovered at Kitt Peak on 2005-02-04 by Spacewatch.

Orbit

Orbit type: Main Belt

Note: WebGL enabled browser required.

epoch2024-03-31.0
epoch JD2460400.5
perihelion date2020-07-04.43375
perihelion JD2459034.93375
argument of perihelion (°)254.28317
ascending node (°)32.82002
inclination (°)3.71238
eccentricity0.0457248
perihelion distance (AU)2.6257577
Tisserand w.r.t. Jupiter3.3
ΔV w.r.t. Earth (km/sec)10.2
semimajor axis (AU)2.7515729
mean anomaly (°)294.87985
mean daily motion (°/day)0.21593960
aphelion distance (AU)2.877
period (years)4.56
P-vector [x]0.29299869
P-vector [y]-0.85055820
P-vector [z]-0.43669499
Q-vector [x]0.95546858
Q-vector [y]0.27724042
Q-vector [z]0.10108183
absolute magnitude16.92
phase slope0.15
uncertainty0
referenceMPEC 2024-F50
observations used218
oppositions18
arc length (days)9280
first opposition used1998
last opposition used2024
residual rms (arc-secs)0.77
perturbers coarse indicatorM-v
perturbers precise indicator003Ek
first observation date used1998-10-22.0
last observation date used2024-03-19.0
computer nameMPCLINUX
JD of orbit computation2456731.628365
perihelion JD uncertainty (days)3.6712E-04
argument of perihelion uncertainty (°)1.3151E-04
ascending node uncertainty (°)1.0537E-04
inclination uncertainty (°)6.9838E-06
eccentricity uncertainty 6.0896E-08
perihelion distance uncertainty (AU)1.6620E-07
Minimum Orbit Intersection Distances (in AU)
for orbit epoch: 2460400.5, reference: E2024-GD4
Mercury2.16639
Venus1.89848
Earth1.61234
Mars1.11769
Jupiter2.1801
Saturn6.1805
Uranus15.6184
Neptune27.0263

Observations

224 total observations over interval: 1998 10 22.31826 – 2024 03 19.621877
These data are available for download (format description).

Date (UT) J2000 RA J2000 Dec Magn Location Ref
1998 10 22.31826 01 00 30.24 +05 04 39.7 20.8 V 691 – Steward Observatory, Kitt Peak-Spacewatch MPS 131727
1998 10 22.33968 01 00 29.12 +05 04 35.7 20.8 V 691 – Steward Observatory, Kitt Peak-Spacewatch MPS 131727
1998 10 22.36080 01 00 28.09 +05 04 31.0 20.9 V 691 – Steward Observatory, Kitt Peak-Spacewatch MPS 131727
2001 03 22.36380 13 56 06.62 -10 34 34.3 21.8 V 691 – Steward Observatory, Kitt Peak-Spacewatch MPS 131727
2001 03 22.38541 13 56 05.80 -10 34 31.4 22.3 V 691 – Steward Observatory, Kitt Peak-Spacewatch MPS 131727
2001 03 22.41463 13 56 04.76 -10 34 27.3 21.8 V 691 – Steward Observatory, Kitt Peak-Spacewatch MPS 131727
2003 11 19.16913 03 54 51.77 +22 56 06.7 21.2 V 691 – Steward Observatory, Kitt Peak-Spacewatch MPS 131727
2003 11 19.19719 03 54 50.09 +22 56 04.1 21.3 V 691 – Steward Observatory, Kitt Peak-Spacewatch MPS 131727
2003 11 19.22463 03 54 48.42 +22 56 01.4 21.6 V 691 – Steward Observatory, Kitt Peak-Spacewatch MPS 131727
2005 02 04.32817 10 32 36.32 +14 38 02.2 21.3 V 691 – Steward Observatory, Kitt Peak-Spacewatch MPS 126467
2005 02 04.33768 10 32 35.87 +14 38 04.8 21.3 V 691 – Steward Observatory, Kitt Peak-Spacewatch MPS 126467
2005 02 04.34945 10 32 35.34 +14 38 08.1 21.4 V 691 – Steward Observatory, Kitt Peak-Spacewatch MPS 126467
2005 02 09.26795 10 28 44.39 +15 01 07.7 21.2 V 691 – Steward Observatory, Kitt Peak-Spacewatch MPS 126467
2005 02 09.29673 10 28 43.02 +15 01 15.3 20.7 V 691 – Steward Observatory, Kitt Peak-Spacewatch MPS 126467
2005 02 09.32200 10 28 41.68 +15 01 23.0 21.0 V 691 – Steward Observatory, Kitt Peak-Spacewatch MPS 126467
2005 03 11.19231 10 03 04.86 +16 59 54.9 20.5 R 695 – Kitt Peak MPS 130789
2005 03 11.26041 10 03 01.69 +17 00 05.2   695 – Kitt Peak MPS 130789
2005 03 14.25383 10 00 51.67 +17 06 56.3 20.7 R G96 – Mt. Lemmon Survey MPS 130789
2005 03 14.26493 10 00 51.19 +17 06 57.9 20.4 R G96 – Mt. Lemmon Survey MPS 130789
2005 03 14.27603 10 00 50.70 +17 06 58.6 20.4 R G96 – Mt. Lemmon Survey MPS 130789
2005 03 14.28713 10 00 50.18 +17 07 01.2 20.4 R G96 – Mt. Lemmon Survey MPS 130789
2007 09 15.33332 00 34 52.86 +00 30 28.1 20.5 V G96 – Mt. Lemmon Survey MPS 216222
2007 09 15.33892 00 34 52.57 +00 30 26.9 20.8 V G96 – Mt. Lemmon Survey MPS 216222
2007 09 15.34458 00 34 52.32 +00 30 25.4 20.0 V G96 – Mt. Lemmon Survey MPS 216222
2007 09 15.35027 00 34 52.03 +00 30 24.2 20.0 V G96 – Mt. Lemmon Survey MPS 216222
2007 10 16.28010 00 09 42.84 -01 29 39.1 20.7 V G96 – Mt. Lemmon Survey MPS 220528
2007 10 16.28954 00 09 42.44 -01 29 40.4 20.5 V G96 – Mt. Lemmon Survey MPS 220528
2007 10 16.29898 00 09 42.01 -01 29 42.3 20.6 V G96 – Mt. Lemmon Survey MPS 220528
2007 10 16.30848 00 09 41.61 -01 29 43.7 20.8 V G96 – Mt. Lemmon Survey MPS 220528
2008 12 31.18662 06 45 17.27 +28 14 41.6 20.8 V 691 – Steward Observatory, Kitt Peak-Spacewatch MPS 270146
2008 12 31.20500 06 45 16.11 +28 14 43.3 20.9 V 691 – Steward Observatory, Kitt Peak-Spacewatch MPS 270146
2008 12 31.22313 06 45 14.96 +28 14 45.3 21.2 V 691 – Steward Observatory, Kitt Peak-Spacewatch MPS 270146
2010 03 13.38871 13 08 15.36 -04 44 39.6 20.0 V G96 – Mt. Lemmon Survey MPS 317902
2010 03 13.39706 13 08 15.03 -04 44 37.9 19.7 V G96 – Mt. Lemmon Survey MPS 317902
2010 03 13.40549 13 08 14.67 -04 44 36.4 20.1 V G96 – Mt. Lemmon Survey MPS 317902
2010 03 13.41383 13 08 14.31 -04 44 35.3 21.0 V G96 – Mt. Lemmon Survey MPS 317902
2010 03 23.02790 13 01 20.67 -04 10 18.5 20.8 R J04 – ESA Optical Ground Station, Tenerife MPS 319312
2010 03 23.05231 13 01 19.49 -04 10 12.5 21.0 R J04 – ESA Optical Ground Station, Tenerife MPS 319312
2010 03 23.07680 13 01 18.28 -04 10 06.7 20.4 R J04 – ESA Optical Ground Station, Tenerife MPS 319312
2010 03 25.33664 12 59 29.97 -04 01 14.9 21.5 V G96 – Mt. Lemmon Survey MPS 319312
2010 03 25.34494 12 59 29.50 -04 01 13.4 20.5 V G96 – Mt. Lemmon Survey MPS 319312
2010 03 25.35329 12 59 29.04 -04 01 10.8 20.6 V G96 – Mt. Lemmon Survey MPS 319312
2010 03 25.36147 12 59 28.60 -04 01 08.8 20.6 V G96 – Mt. Lemmon Survey MPS 319312
2010 04 11.28988 12 45 07.95 -02 52 43.7 20.2 V G96 – Mt. Lemmon Survey MPS 322209
2010 04 11.29904 12 45 07.45 -02 52 41.7 20.7 V G96 – Mt. Lemmon Survey MPS 322209
2010 04 11.30834 12 45 07.02 -02 52 39.4 21.0 V G96 – Mt. Lemmon Survey MPS 322209
2010 04 11.31769 12 45 06.51 -02 52 37.0 20.4 V G96 – Mt. Lemmon Survey MPS 322209
2010 05 09.20358 12 27 13.32 -01 43 05.4 21.1 V G96 – Mt. Lemmon Survey MPS 326335
2010 05 09.21066 12 27 13.14 -01 43 05.0 21.3 V G96 – Mt. Lemmon Survey MPS 326335
2010 05 09.21781 12 27 12.99 -01 43 04.9 21.9 V G96 – Mt. Lemmon Survey MPS 326335
2010 05 09.22494 12 27 12.81 -01 43 04.0 21.3 V G96 – Mt. Lemmon Survey MPS 326335
2011 07 31.41314 20 24 21.206 -25 31 16.42 20.4 w F51 – Pan-STARRS 1, Haleakala MPS 387992
2011 07 31.42799 20 24 20.330 -25 31 18.83 20.4 w F51 – Pan-STARRS 1, Haleakala MPS 387992
2011 07 31.44276 20 24 19.480 -25 31 21.35 20.4 w F51 – Pan-STARRS 1, Haleakala MPS 387992
2011 07 31.45758 20 24 18.631 -25 31 23.54 20.5 w F51 – Pan-STARRS 1, Haleakala MPS 387992
2011 08 01.38643 20 23 27.423 -25 33 50.39 20.2 r F51 – Pan-STARRS 1, Haleakala MPS 387992
2011 08 01.39614 20 23 26.856 -25 33 51.89 20.4 r F51 – Pan-STARRS 1, Haleakala MPS 387992
2011 08 01.40705 20 23 26.201 -25 33 53.64 21.0 g F51 – Pan-STARRS 1, Haleakala MPS 387992
2011 08 01.41725 20 23 25.653 -25 33 55.23 21.0 g F51 – Pan-STARRS 1, Haleakala MPS 387992
2012 10 22.540218 03 19 09.978 +19 27 48.00 21.1 w F51 – Pan-STARRS 1, Haleakala MPS 439369
2012 10 22.554786 03 19 09.269 +19 27 46.37 20.9 w F51 – Pan-STARRS 1, Haleakala MPS 439369
2012 10 22.569223 03 19 08.570 +19 27 45.22 20.9 w F51 – Pan-STARRS 1, Haleakala MPS 439369
2012 10 22.583696 03 19 07.865 +19 27 43.71 20.9 w F51 – Pan-STARRS 1, Haleakala MPS 439369
2012 10 25.36244 03 16 53.36 +19 23 10.0 20.8 V 691 – Steward Observatory, Kitt Peak-Spacewatch MPS 439369
2012 10 25.38016 03 16 52.41 +19 23 08.4 21.1 V 691 – Steward Observatory, Kitt Peak-Spacewatch MPS 439369
2012 10 25.39784 03 16 51.46 +19 23 06.8 20.5 V 691 – Steward Observatory, Kitt Peak-Spacewatch MPS 439369
2012 10 27.23038 03 15 19.08 +19 19 45.0 20.4 V G96 – Mt. Lemmon Survey MPS 441492
2012 10 27.23498 03 15 18.79 +19 19 45.1 20.8 V G96 – Mt. Lemmon Survey MPS 441492
2012 10 27.23950 03 15 18.54 +19 19 45.0 20.6 V G96 – Mt. Lemmon Survey MPS 441492
2012 10 27.24415 03 15 18.36 +19 19 45.0 20.8 V G96 – Mt. Lemmon Survey MPS 441492
2012 11 06.39047 03 06 04.50 +18 57 07.7 20.5 V G96 – Mt. Lemmon Survey MPS 441492
2012 11 06.39587 03 06 04.21 +18 57 06.6 20.5 V G96 – Mt. Lemmon Survey MPS 441492
2012 11 06.40140 03 06 03.88 +18 57 06.0 20.4 V G96 – Mt. Lemmon Survey MPS 441492
2012 11 06.40687 03 06 03.56 +18 57 05.1 20.6 V G96 – Mt. Lemmon Survey MPS 441492
2012 11 15.30380 02 57 39.24 +18 33 16.4 20.2 V G96 – Mt. Lemmon Survey MPS 443263
2012 11 15.30740 02 57 39.02 +18 33 16.0 19.9 V G96 – Mt. Lemmon Survey MPS 443263
2012 11 15.31103 02 57 38.80 +18 33 15.2 20.4 V G96 – Mt. Lemmon Survey MPS 443263
2012 11 15.31464 02 57 38.62 +18 33 15.5 20.5 V G96 – Mt. Lemmon Survey MPS 443263
2014 01 24.38317 09 48 01.651 +19 01 01.23 21.1 w F51 – Pan-STARRS 1, Haleakala MPS 500071
2014 01 24.39634 09 48 01.032 +19 01 04.89 21.0 w F51 – Pan-STARRS 1, Haleakala MPS 500071
2014 02 18.24778 09 25 54.51 +20 44 05.7 20.4 V G96 – Mt. Lemmon Survey MPS 502237
2014 02 18.25307 09 25 54.24 +20 44 06.5 20.9 V G96 – Mt. Lemmon Survey MPS 502237
2014 02 18.25836 09 25 53.94 +20 44 07.4 21.0 V G96 – Mt. Lemmon Survey MPS 502237
2014 02 18.26369 09 25 53.61 +20 44 09.1 21.2 V G96 – Mt. Lemmon Survey MPS 502237
2015 05 18.42840 15 44 35.503 -22 25 17.75 20.2 w F52 – Pan-STARRS 2, Haleakala MPS 608386
2015 05 18.44216 15 44 34.693 -22 25 16.48 20.1 w F52 – Pan-STARRS 2, Haleakala MPS 608386
2015 05 18.45595 15 44 33.880 -22 25 15.12 20.3 w F52 – Pan-STARRS 2, Haleakala MPS 608386
2015 05 18.46972 15 44 33.069 -22 25 13.86 20.2 w F52 – Pan-STARRS 2, Haleakala MPS 608386
2015 05 21.28167 15 41 53.42 -22 20 31.4 20.6 V W84 – Cerro Tololo-DECam MPS 789318
2015 05 21.28487 15 41 53.23 -22 20 31.0   W84 – Cerro Tololo-DECam MPS 789318
